Accueil
METAR-TAF:

METAR-TAF

Aéroports :

RAF

Holbeach, Angleterre

latitude: 52-52N, longitude: 000-09E, altitude: 3 m

Observation

Le bulletin a été fait il y a 2 heures et 22 minutes, à 19:50 UTC
Vent 17 kt de ouest
Température 12°C
Humidité 88%
Pression 1026 hPa
Visibilité 10 km ou plus
Quelques nuages à une hauteur de 2000 ft

METAR: EGYH 231950Z 28017KT 9999 FEW020 12/10 Q1026 BLU

Heure: 23:12 (22:12 UTC)


TAF: absent

Observations et prévisions météorologiques de plus de 4000 aéroports (messages METAR et TAF).

Les stations disponibles sont représentées par des disques jaunes et rouges sur la carte.

Passer la souris dessus pour voir le nom de la station.

Cliquer dessus pour voir les observations et prévisions météorologiques.

Pour changer de carte: cliquez sur les boutons verts avec une croix noire pour zoomer, sur le bouton vert avec un tiret pour effectuer un zoom arrière, ou sur les flèches vertes pour les cartes adjacentes.


METAR-TAF: